Location: Bidwell Hollow
(37.7387°N, 90.1707°W)
Time: 13:54:16
(UTC+00:00)

Vanguard 3 - Pass Details

Date: 14 May 2026
Orbit: 507 x 3204 km, 33.3° (Epoch: 6 June)

Event Time Altitude Azimuth Distance (km) Brightness Sun altitude
Rises 01:49:58 0° 283° (WNW) 6,777 13.4 -9.2°
Reaches altitude 10° 01:55:23 10° 277° (W) 5,435 12.5 -10.1°
Maximum altitude 02:08:27 37° 218° (SW) 2,689 9.8 -12.2°
Enters shadow 02:16:12 12° 155° (SSE) 3,297 9.7 -13.4°
Drops below altitude 10° 02:16:36 10° 154° (SSE) 3,388 - -13.5°
Sets 02:19:10 0° 145° (SE) 4,050 - -13.9°
